Slayton, MN

6:30 PM CDT on August 24, 2016 (GMT -0500)
Slayton

Weather History for KDVP - August, 2013

Change the Weather History Date:

Monday, August 5, 2013

  Actual Average (KOTG) Record (KOTG)
Temperature  
Mean Temperature 72 °F -  
Max Temperature 82 °F 75 °F 91 °F (1983)
Min Temperature 62 °F 58 °F 48 °F (1992)
Cooling Degree Days 7    
Growing Degree Days 22 (Base 50)    
Moisture  
Dew Point 63 °F    
Average Humidity 78    
Maximum Humidity 98    
Minimum Humidity 40    
Precipitation  
Precipitation 0.07 in - - ()
Sea Level Pressure  
Sea Level Pressure 29.93 in    
Wind  
Wind Speed 6 mph (West)    
Max Wind Speed 14 mph    
Max Gust Speed -    
Visibility 9 miles    
Events Rain , Thunderstorm    
Averages and records for this station are not official NWS values.
T = Trace of Precipitation, MM = Missing Value Source: NWS Daily Summary

Daily Weather History Graph

Daily Weather History Graph

Search for Another Location

Airport or City:

Trip Planner

Search our weather history database for the weather conditions in past years. The results will help you decide how hot, cold, wet, or windy it might be!

Date:

Astronomy

Aug. 05, 2013 Rise Set
Actual Time 6:16 AM CDT 8:41 PM CDT
Civil Twilight 5:43 AM CDT 9:13 PM CDT
Nautical Twilight 5:03 AM CDT 9:53 PM CDT
Astronomical Twilight 4:17 AM CDT 10:39 PM CDT
Moon 5:12 AM CDT (8/5) 7:40 PM CDT (8/5)
Length of Visible Light 15h 30m
Length of Day
14h 25m
Waning Crescent, 1% of the Moon is Illuminated
Aug 5
Waning Crescent
Aug 6
New
Aug 14
First Quarter
Aug 20
Full
Aug 28
Last Quarter

Hourly Weather History & Observations

Time (CDT) Temp. Heat Index Dew Point Humidity Pressure Visibility Wind Dir Wind Speed Gust Speed Precip Events Conditions
12:13 AM 63.7 °F - 60.4 °F 89% 29.96 in 10.0 mi SSE 11.5 mph - 0.01 in Rain , Thunderstorm Light Thunderstorms and Rain
12:32 AM 64.4 °F - 59.9 °F 85% 29.99 in 10.0 mi South 6.9 mph - 0.01 in Rain , Thunderstorm Light Thunderstorms and Rain
12:53 AM 64.2 °F - 60.1 °F 86% 30.01 in 10.0 mi Calm Calm - 0.01 in   Overcast
1:13 AM 65.5 °F - 59.4 °F 81% 30.00 in 10.0 mi SE 4.6 mph - N/A Thunderstorm Overcast
1:33 AM 64.9 °F - 60.3 °F 85% 30.00 in 10.0 mi Calm Calm - N/A   Overcast
1:53 AM 64.8 °F - 60.6 °F 86% 29.98 in 10.0 mi SE 6.9 mph - N/A   Overcast
2:13 AM 64.4 °F - 60.8 °F 88% 29.98 in 10.0 mi SE 5.8 mph - N/A   Overcast
2:33 AM 64.9 °F - 60.8 °F 86% 29.97 in 10.0 mi South 5.8 mph - N/A   Overcast
2:53 AM 65.3 °F - 61.3 °F 87% 29.96 in 10.0 mi SSE 5.8 mph - N/A   Overcast
3:14 AM 65.3 °F - 62.2 °F 90% 29.96 in 10.0 mi South 3.5 mph - N/A   Overcast
3:33 AM 67.6 °F - 63.1 °F 85% 29.95 in 10.0 mi SSW 8.1 mph - N/A   Overcast
3:53 AM 67.3 °F - 63.5 °F 88% 29.95 in 10.0 mi SSW 5.8 mph - N/A   Overcast
4:13 AM 67.1 °F - 63.5 °F 88% 29.95 in 10.0 mi SSW 4.6 mph - N/A   Overcast
4:33 AM 66.7 °F - 63.7 °F 90% 29.96 in 10.0 mi Calm Calm - N/A   Overcast
4:53 AM 66.2 °F - 63.9 °F 92% 29.95 in 10.0 mi ENE 4.6 mph - N/A   Overcast
5:13 AM 64.4 °F - 63.0 °F 95% 29.95 in 10.0 mi ESE 6.9 mph - N/A   Overcast
5:33 AM 64.4 °F - 63.1 °F 96% 29.94 in 10.0 mi ENE 4.6 mph - N/A   Overcast
5:53 AM 64.4 °F - 63.0 °F 95% 29.95 in 10.0 mi SE 5.8 mph - N/A   Overcast
6:13 AM 64.4 °F - 63.1 °F 96% 29.93 in 10.0 mi SE 4.6 mph - N/A   Overcast
6:33 AM 64.4 °F - 63.5 °F 97% 29.93 in 7.0 mi Calm Calm - N/A   Overcast
6:53 AM 64.6 °F - 63.7 °F 97% 29.93 in 7.0 mi Calm Calm - N/A   Overcast
7:14 AM 64.9 °F - 64.0 °F 97% 29.93 in 7.0 mi Calm Calm - N/A   Overcast
7:33 AM 64.9 °F - 64.2 °F 98% 29.94 in 7.0 mi Calm Calm - N/A   Overcast
7:53 AM 65.7 °F - 64.8 °F 97% 29.96 in 7.0 mi SSW 4.6 mph - N/A   Overcast
8:13 AM 66.6 °F - 65.7 °F 97% 29.95 in 2.5 mi SSW 5.8 mph - 0.06 in Rain Light Rain
8:32 AM 66.7 °F - 66.2 °F 98% 29.94 in 1.5 mi WSW 4.6 mph - 0.06 in   Light Drizzle
8:53 AM 67.5 °F - 66.9 °F 98% 29.94 in 2.0 mi West 5.8 mph - 0.06 in   Overcast
9:14 AM 68.4 °F - 67.6 °F 98% 29.94 in 3.0 mi WSW 8.1 mph - N/A   Overcast
9:32 AM 69.1 °F - 67.6 °F 95% 29.93 in 4.0 mi WSW 8.1 mph - N/A   Overcast
9:54 AM 70.2 °F - 68.0 °F 93% 29.92 in 5.0 mi WSW 5.8 mph - N/A   Overcast
10:14 AM 70.7 °F - 67.8 °F 91% 29.92 in 7.0 mi WNW 5.8 mph - N/A   Overcast
10:34 AM 71.1 °F - 67.6 °F 89% 29.91 in 7.0 mi NW 5.8 mph - N/A   Overcast
10:53 AM 72.0 °F - 66.7 °F 84% 29.92 in 10.0 mi NNW 5.8 mph - N/A   Overcast
11:13 AM 72.1 °F - 67.3 °F 85% 29.92 in 10.0 mi NNW 5.8 mph - N/A   Overcast
11:33 AM 72.1 °F - 66.7 °F 83% 29.92 in 10.0 mi WNW 3.5 mph - N/A   Overcast
11:53 AM 73.2 °F - 66.0 °F 78% 29.92 in 10.0 mi Calm Calm - N/A   Mostly Cloudy
12:13 PM 74.3 °F - 66.2 °F 76% 29.92 in 10.0 mi North 3.5 mph - N/A   Scattered Clouds
12:33 PM 75.7 °F - 65.1 °F 69% 29.92 in 10.0 mi WNW 3.5 mph - N/A   Scattered Clouds
12:53 PM 75.9 °F - 65.7 °F 70% 29.91 in 10.0 mi NNW 4.6 mph - N/A   Scattered Clouds
1:13 PM 77.2 °F - 65.7 °F 67% 29.91 in 10.0 mi West 6.9 mph - N/A   Scattered Clouds
1:35 PM 78.1 °F - 64.9 °F 64% 29.92 in 10.0 mi WNW 8.1 mph - N/A   Scattered Clouds
1:54 PM 78.4 °F - 62.4 °F 58% 29.91 in 10.0 mi West 6.9 mph - N/A   Scattered Clouds
2:13 PM 79.0 °F - 63.1 °F 58% 29.91 in 10.0 mi NW 9.2 mph - N/A   Clear
2:33 PM 79.7 °F - 62.4 °F 55% 29.91 in 10.0 mi WNW 8.1 mph - N/A   Clear
2:53 PM 80.8 °F 81.2 °F 59.0 °F 47% 29.91 in 10.0 mi WNW 5.8 mph - N/A   Clear
3:13 PM 81.1 °F 81.0 °F 56.3 °F 42% 29.91 in 10.0 mi West 6.9 mph - N/A   Clear
3:33 PM 81.9 °F 81.3 °F 55.2 °F 40% 29.90 in 10.0 mi WNW 11.5 mph - N/A   Clear
3:53 PM 82.2 °F 81.8 °F 56.1 °F 41% 29.90 in 10.0 mi WNW 6.9 mph - N/A   Clear
4:13 PM 81.5 °F 81.7 °F 59.0 °F 46% 29.90 in 10.0 mi WNW 9.2 mph - N/A   Clear
4:33 PM 82.9 °F 82.7 °F 58.3 °F 43% 29.90 in 10.0 mi NW 9.2 mph - N/A   Scattered Clouds
4:54 PM 81.7 °F 81.4 °F 56.7 °F 42% 29.89 in 10.0 mi WNW 11.5 mph - N/A   Scattered Clouds
5:13 PM 81.5 °F 81.3 °F 56.5 °F 42% 29.89 in 10.0 mi WNW 12.7 mph - N/A   Clear
5:33 PM 81.1 °F 81.1 °F 56.8 °F 43% 29.89 in 10.0 mi WNW 13.8 mph - N/A   Clear
5:53 PM 81.0 °F 81.1 °F 57.7 °F 45% 29.89 in 10.0 mi West 13.8 mph - N/A   Clear
6:13 PM 80.6 °F 80.7 °F 56.7 °F 44% 29.89 in 10.0 mi WNW 11.5 mph - N/A   Clear
6:33 PM 79.7 °F - 57.6 °F 47% 29.89 in 10.0 mi WNW 10.4 mph - N/A   Clear
6:53 PM 79.3 °F - 57.6 °F 47% 29.88 in 10.0 mi WNW 6.9 mph - N/A   Clear
7:13 PM 78.4 °F - 58.3 °F 50% 29.88 in 10.0 mi NW 5.8 mph - N/A   Clear
7:33 PM 77.0 °F - 61.5 °F 59% 29.88 in 10.0 mi NNW 3.5 mph - N/A   Scattered Clouds
7:53 PM 74.1 °F - 64.9 °F 73% 29.88 in 10.0 mi Calm Calm - N/A   Scattered Clouds
8:13 PM 73.4 °F - 65.5 °F 76% 29.88 in 10.0 mi Calm Calm - N/A   Scattered Clouds
8:33 PM 73.2 °F - 65.5 °F 77% 29.88 in 10.0 mi Calm Calm - N/A   Mostly Cloudy
8:53 PM 71.6 °F - 65.8 °F 82% 29.89 in 10.0 mi Calm Calm - N/A   Mostly Cloudy
9:13 PM 70.7 °F - 65.8 °F 85% 29.90 in 10.0 mi Calm Calm - N/A   Mostly Cloudy
9:33 PM 68.2 °F - 65.7 °F 92% 29.91 in 10.0 mi West 3.5 mph - N/A   Scattered Clouds
9:53 PM 68.2 °F - 64.2 °F 87% 29.91 in 10.0 mi NW 4.6 mph - N/A   Clear
10:12 PM 66.9 °F - 64.0 °F 90% 29.91 in 10.0 mi Calm Calm - N/A   Clear
10:33 PM 65.8 °F - 63.5 °F 92% 29.92 in 10.0 mi Calm Calm - N/A   Clear
10:53 PM 65.5 °F - 63.1 °F 92% 29.91 in 10.0 mi Calm Calm - N/A   Clear
11:13 PM 63.0 °F - 61.7 °F 96% 29.92 in 10.0 mi WNW 4.6 mph - N/A   Clear
11:33 PM 62.8 °F - 61.9 °F 97% 29.92 in 7.0 mi WNW 4.6 mph - N/A   Clear
11:53 PM 62.1 °F - 61.2 °F 97% 29.91 in 7.0 mi Calm Calm - N/A   Clear